This is the latest recevied weather packets stored in our database for station/object N8ESC. If no packets are shown the sender has not sent any weather packets the latest 10 day(s).
| Time | Temp. | Humidity | Pressure | Rain* | Wind** | Luminosity | Snow |
|---|---|---|---|---|---|---|---|
| 1777377340 | 10° C | 80% | 998.8 hPa | 0 mm | - | 26 W/m² | - |
| 1777377037 | 10° C | 79% | 998.6 hPa | 0 mm | - | 20 W/m² | - |
| 1777376734 | 10° C | 78% | 998.3 hPa | 0 mm | - | 19 W/m² | - |
| 1777376432 | 10° C | 81% | 998.4 hPa | 0 mm | - | 19 W/m² | - |
| 1777376127 | 10° C | 83% | 998.3 hPa | 0 mm | - | 19 W/m² | - |
| 1777375827 | 10° C | 84% | 998.2 hPa | 0 mm | - | 13 W/m² | - |
| 1777375522 | 10° C | 86% | 997.9 hPa | 0 mm | - | 17 W/m² | - |
| 1777375218 | 10.56° C | 87% | 998 hPa | 0 mm | - | 16 W/m² | - |
| 1777374913 | 10.56° C | 85% | 997.5 hPa | 0 mm | - | 13 W/m² | - |
| 1777374610 | 10.56° C | 83% | 997.4 hPa | 0 mm | - | 14 W/m² | - |
| 1777374306 | 10.56° C | 85% | 997.5 hPa | 0 mm | - | 12 W/m² | - |
| 1777374002 | 10.56° C | 85% | 997.4 hPa | 0 mm | - | 3 W/m² | - |
| 1777373699 | 10.56° C | 84% | 997.2 hPa | 0 mm | - | 3 W/m² | - |
| 1777373396 | 11.11° C | 84% | 997.1 hPa | 0 mm | - | 1 W/m² | - |
| 1777373091 | 11.11° C | 85% | 996.9 hPa | 0 mm | - | 2 W/m² | - |
| 1777372786 | 11.11° C | 85% | 996.8 hPa | 0 mm | - | 2 W/m² | - |
| 1777372481 | 11.67° C | 87% | 996.7 hPa | 0 mm | - | 1 W/m² | - |
| 1777372179 | 11.67° C | 88% | 996.5 hPa | 0 mm | - | 1 W/m² | - |
| 1777371875 | 11.67° C | 88% | 996.3 hPa | 0 mm | - | 0 W/m² | - |
| 1777371572 | 12.22° C | 87% | 996.2 hPa | 0 mm | - | 0 W/m² | - |
| 1777371268 | 12.78° C | 88% | 996 hPa | 0 mm | - | 0 W/m² | - |
| 1777370965 | 12.22° C | 95% | 995.8 hPa | 0 mm | - | 0 W/m² | - |
| 1777370660 | 12.22° C | 99% | 995.6 hPa | 0 mm | - | 0 W/m² | - |
| 1777370357 | 12.22° C | 99% | 995.6 hPa | 0 mm | - | 0 W/m² | - |
| 1777370052 | 11.67° C | 99% | 995.5 hPa | 0 mm | - | 0 W/m² | - |
* Rain latest hour (hover to see other rain measurements)
** Current wind speed in m/s (hover to see current wind gust speed)